owner,sensor,date,latitude,longitude,relative_humidity,qcFlag 
DISL,ioos:station:DISL:PPTA:1,2015-11-01T00:00:00Z,30.2791,-87.5561,96.3,1111122 
DISL,ioos:station:DISL:PPTA:1,2015-11-01T00:30:00Z,30.2791,-87.5561,96.4,1111122 
DISL,ioos:station:DISL:PPTA:1,2015-11-01T01:00:00Z,30.2791,-87.5561,96.6,1111122 
DISL,ioos:station:DISL:PPTA:1,2015-11-01T01:30:00Z,30.2791,-87.5561,97.4,1111122 
DISL,ioos:station:DISL:PPTA:1,2015-11-01T02:00:00Z,30.2791,-87.5561,97.3,1111122 
DISL,ioos:station:DISL:PPTA:1,2015-11-01T02:30:00Z,30.2791,-87.5561,97.6,1111122 
DISL,ioos:station:DISL:PPTA:1,2015-11-01T03:00:00Z,30.2791,-87.5561,97.6,1111122 
DISL,ioos:station:DISL:PPTA:1,2015-11-01T03:30:00Z,30.2791,-87.5561,97.0,1111122 
DISL,ioos:station:DISL:PPTA:1,2015-11-01T04:00:00Z,30.2791,-87.5561,98.6,1111122 
DISL,ioos:station:DISL:PPTA:1,2015-11-01T04:30:00Z,30.2791,-87.5561,98.5,1111122 
DISL,ioos:station:DISL:PPTA:1,2015-11-01T05:00:00Z,30.2791,-87.5561,98.6,1111122 
DISL,ioos:station:DISL:PPTA:1,2015-11-01T05:30:00Z,30.2791,-87.5561,98.6,1111122 
DISL,ioos:station:DISL:PPTA:1,2015-11-01T06:00:00Z,30.2791,-87.5561,98.7,1111122 
DISL,ioos:station:DISL:PPTA:1,2015-11-01T06:30:00Z,30.2791,-87.5561,98.8,1111122 
DISL,ioos:station:DISL:PPTA:1,2015-11-01T07:00:00Z,30.2791,-87.5561,99.0,1111122 
DISL,ioos:station:DISL:PPTA:1,2015-11-01T07:30:00Z,30.2791,-87.5561,99.1,1111122 
DISL,ioos:station:DISL:PPTA:1,2015-11-01T08:00:00Z,30.2791,-87.5561,99.1,1111122 
DISL,ioos:station:DISL:PPTA:1,2015-11-01T08:30:00Z,30.2791,-87.5561,99.2,1111122 
DISL,ioos:station:DISL:PPTA:1,2015-11-01T09:00:00Z,30.2791,-87.5561,99.4,1111122 
DISL,ioos:station:DISL:PPTA:1,2015-11-01T09:30:00Z,30.2791,-87.5561,99.6,1111122 
DISL,ioos:station:DISL:PPTA:1,2015-11-01T10:00:00Z,30.2791,-87.5561,99.7,1111122 
DISL,ioos:station:DISL:PPTA:1,2015-11-01T10:30:00Z,30.2791,-87.5561,99.3,1111122 
DISL,ioos:station:DISL:PPTA:1,2015-11-01T11:00:00Z,30.2791,-87.5561,98.8,1111122 
DISL,ioos:station:DISL:PPTA:1,2015-11-01T11:30:00Z,30.2791,-87.5561,97.0,1111122 
DISL,ioos:station:DISL:PPTA:1,2015-11-01T12:00:00Z,30.2791,-87.5561,97.1,1111122 
DISL,ioos:station:DISL:PPTA:1,2015-11-01T12:30:00Z,30.2791,-87.5561,97.4,1111122 
DISL,ioos:station:DISL:PPTA:1,2015-11-01T13:00:00Z,30.2791,-87.5561,96.8,1111122 
DISL,ioos:station:DISL:PPTA:1,2015-11-01T13:30:00Z,30.2791,-87.5561,97.7,1111122 
DISL,ioos:station:DISL:PPTA:1,2015-11-01T14:00:00Z,30.2791,-87.5561,93.4,1111122 
DISL,ioos:station:DISL:PPTA:1,2015-11-01T14:30:00Z,30.2791,-87.5561,91.2,1111122 
DISL,ioos:station:DISL:PPTA:1,2015-11-01T15:00:00Z,30.2791,-87.5561,91.0,1111122 
DISL,ioos:station:DISL:PPTA:1,2015-11-01T15:30:00Z,30.2791,-87.5561,93.6,1111122 
DISL,ioos:station:DISL:PPTA:1,2015-11-01T16:00:00Z,30.2791,-87.5561,95.4,1111122 
DISL,ioos:station:DISL:PPTA:1,2015-11-01T16:30:00Z,30.2791,-87.5561,94.7,1111122 
DISL,ioos:station:DISL:PPTA:1,2015-11-01T17:00:00Z,30.2791,-87.5561,95.8,1111122 
DISL,ioos:station:DISL:PPTA:1,2015-11-01T17:30:00Z,30.2791,-87.5561,97.2,1111122 
DISL,ioos:station:DISL:PPTA:1,2015-11-01T18:00:00Z,30.2791,-87.5561,97.1,1111122 
DISL,ioos:station:DISL:PPTA:1,2015-11-01T18:30:00Z,30.2791,-87.5561,97.3,1111122 
DISL,ioos:station:DISL:PPTA:1,2015-11-01T19:00:00Z,30.2791,-87.5561,97.7,1111122 
DISL,ioos:station:DISL:PPTA:1,2015-11-01T19:30:00Z,30.2791,-87.5561,98.3,1111122 
DISL,ioos:station:DISL:PPTA:1,2015-11-01T20:00:00Z,30.2791,-87.5561,97.8,1111122 
DISL,ioos:station:DISL:PPTA:1,2015-11-01T20:30:00Z,30.2791,-87.5561,97.6,1111122 
DISL,ioos:station:DISL:PPTA:1,2015-11-01T21:00:00Z,30.2791,-87.5561,97.3,1111122 
DISL,ioos:station:DISL:PPTA:1,2015-11-01T21:30:00Z,30.2791,-87.5561,97.6,1111122 
DISL,ioos:station:DISL:PPTA:1,2015-11-01T22:00:00Z,30.2791,-87.5561,98.1,1111122 
DISL,ioos:station:DISL:PPTA:1,2015-11-01T22:30:00Z,30.2791,-87.5561,99.4,1111122 
DISL,ioos:station:DISL:PPTA:1,2015-11-01T23:00:00Z,30.2791,-87.5561,99.4,1111122 
DISL,ioos:station:DISL:PPTA:1,2015-11-01T23:30:00Z,30.2791,-87.5561,99.4,1111122 
DISL,ioos:station:DISL:PPTA:1,2015-11-02T00:00:00Z,30.2791,-87.5561,98.8,1111122 
DISL,ioos:station:DISL:PPTA:1,2015-11-02T00:30:00Z,30.2791,-87.5561,99.1,1111122 
DISL,ioos:station:DISL:PPTA:1,2015-11-02T01:00:00Z,30.2791,-87.5561,97.6,1111122 
DISL,ioos:station:DISL:PPTA:1,2015-11-02T01:30:00Z,30.2791,-87.5561,98.3,1111122 
DISL,ioos:station:DISL:PPTA:1,2015-11-02T02:00:00Z,30.2791,-87.5561,98.9,1111122 
DISL,ioos:station:DISL:PPTA:1,2015-11-02T02:30:00Z,30.2791,-87.5561,99.4,1111122 
DISL,ioos:station:DISL:PPTA:1,2015-11-02T03:00:00Z,30.2791,-87.5561,99.3,1111122 
DISL,ioos:station:DISL:PPTA:1,2015-11-02T03:30:00Z,30.2791,-87.5561,99.5,1111122 
DISL,ioos:station:DISL:PPTA:1,2015-11-02T04:00:00Z,30.2791,-87.5561,99.7,1111122 
DISL,ioos:station:DISL:PPTA:1,2015-11-02T04:30:00Z,30.2791,-87.5561,99.7,1111122 
DISL,ioos:station:DISL:PPTA:1,2015-11-02T05:00:00Z,30.2791,-87.5561,100.0,1111122 
DISL,ioos:station:DISL:PPTA:1,2015-11-02T05:30:00Z,30.2791,-87.5561,97.6,1111122 
DISL,ioos:station:DISL:PPTA:1,2015-11-02T06:00:00Z,30.2791,-87.5561,96.5,1111122 
DISL,ioos:station:DISL:PPTA:1,2015-11-02T06:30:00Z,30.2791,-87.5561,97.4,1111122 
DISL,ioos:station:DISL:PPTA:1,2015-11-02T07:00:00Z,30.2791,-87.5561,97.4,1111122 
DISL,ioos:station:DISL:PPTA:1,2015-11-02T07:30:00Z,30.2791,-87.5561,98.3,1111122 
DISL,ioos:station:DISL:PPTA:1,2015-11-02T08:00:00Z,30.2791,-87.5561,99.4,1111122 
DISL,ioos:station:DISL:PPTA:1,2015-11-02T08:30:00Z,30.2791,-87.5561,99.7,1111122 
DISL,ioos:station:DISL:PPTA:1,2015-11-02T09:00:00Z,30.2791,-87.5561,99.6,1111122 
DISL,ioos:station:DISL:PPTA:1,2015-11-02T09:30:00Z,30.2791,-87.5561,99.8,1111122 
DISL,ioos:station:DISL:PPTA:1,2015-11-02T10:00:00Z,30.2791,-87.5561,98.5,1111122 
DISL,ioos:station:DISL:PPTA:1,2015-11-02T10:30:00Z,30.2791,-87.5561,97.7,1111122 
DISL,ioos:station:DISL:PPTA:1,2015-11-02T11:00:00Z,30.2791,-87.5561,97.1,1111122 
DISL,ioos:station:DISL:PPTA:1,2015-11-02T11:30:00Z,30.2791,-87.5561,97.8,1111122 
DISL,ioos:station:DISL:PPTA:1,2015-11-02T12:00:00Z,30.2791,-87.5561,96.7,1111122 
DISL,ioos:station:DISL:PPTA:1,2015-11-02T12:30:00Z,30.2791,-87.5561,97.6,1111122 
DISL,ioos:station:DISL:PPTA:1,2015-11-02T13:00:00Z,30.2791,-87.5561,98.5,1111122 
DISL,ioos:station:DISL:PPTA:1,2015-11-02T13:30:00Z,30.2791,-87.5561,98.9,1111122 
DISL,ioos:station:DISL:PPTA:1,2015-11-02T14:00:00Z,30.2791,-87.5561,98.2,1111122 
DISL,ioos:station:DISL:PPTA:1,2015-11-02T14:30:00Z,30.2791,-87.5561,97.1,1111122 
DISL,ioos:station:DISL:PPTA:1,2015-11-02T15:00:00Z,30.2791,-87.5561,96.2,1111122 
DISL,ioos:station:DISL:PPTA:1,2015-11-02T15:30:00Z,30.2791,-87.5561,93.6,1111122 
DISL,ioos:station:DISL:PPTA:1,2015-11-02T16:00:00Z,30.2791,-87.5561,91.1,1111122 
DISL,ioos:station:DISL:PPTA:1,2015-11-02T16:30:00Z,30.2791,-87.5561,90.8,1111122 
DISL,ioos:station:DISL:PPTA:1,2015-11-02T17:00:00Z,30.2791,-87.5561,92.2,1111122 
DISL,ioos:station:DISL:PPTA:1,2015-11-02T17:30:00Z,30.2791,-87.5561,90.2,1111122 
DISL,ioos:station:DISL:PPTA:1,2015-11-02T18:00:00Z,30.2791,-87.5561,87.2,1111122 
DISL,ioos:station:DISL:PPTA:1,2015-11-02T18:30:00Z,30.2791,-87.5561,86.8,1111122 
DISL,ioos:station:DISL:PPTA:1,2015-11-02T19:00:00Z,30.2791,-87.5561,80.3,1111122 
DISL,ioos:station:DISL:PPTA:1,2015-11-02T19:30:00Z,30.2791,-87.5561,77.85,1111122 
DISL,ioos:station:DISL:PPTA:1,2015-11-02T20:00:00Z,30.2791,-87.5561,73.86,1111122 
DISL,ioos:station:DISL:PPTA:1,2015-11-02T20:30:00Z,30.2791,-87.5561,72.35,1111122 
DISL,ioos:station:DISL:PPTA:1,2015-11-02T21:00:00Z,30.2791,-87.5561,71.33,1111122 
DISL,ioos:station:DISL:PPTA:1,2015-11-02T21:30:00Z,30.2791,-87.5561,77.08,1111122 
DISL,ioos:station:DISL:PPTA:1,2015-11-02T22:00:00Z,30.2791,-87.5561,74.08,1111122 
DISL,ioos:station:DISL:PPTA:1,2015-11-02T22:30:00Z,30.2791,-87.5561,81.3,1111122 
DISL,ioos:station:DISL:PPTA:1,2015-11-02T23:00:00Z,30.2791,-87.5561,84.2,1111122 
DISL,ioos:station:DISL:PPTA:1,2015-11-02T23:30:00Z,30.2791,-87.5561,86.2,1111122 
DISL,ioos:station:DISL:PPTA:1,2015-11-03T00:00:00Z,30.2791,-87.5561,88.3,1111122 
DISL,ioos:station:DISL:PPTA:1,2015-11-03T00:30:00Z,30.2791,-87.5561,91.9,1111122 
DISL,ioos:station:DISL:PPTA:1,2015-11-03T01:00:00Z,30.2791,-87.5561,92.9,1111122 
DISL,ioos:station:DISL:PPTA:1,2015-11-03T01:30:00Z,30.2791,-87.5561,93.0,1111122 
DISL,ioos:station:DISL:PPTA:1,2015-11-03T02:00:00Z,30.2791,-87.5561,93.1,1111122 
DISL,ioos:station:DISL:PPTA:1,2015-11-03T02:30:00Z,30.2791,-87.5561,94.0,1111122 
DISL,ioos:station:DISL:PPTA:1,2015-11-03T03:00:00Z,30.2791,-87.5561,94.7,1111122 
DISL,ioos:station:DISL:PPTA:1,2015-11-03T03:30:00Z,30.2791,-87.5561,96.0,1111122 
DISL,ioos:station:DISL:PPTA:1,2015-11-03T04:00:00Z,30.2791,-87.5561,96.7,1111122 
DISL,ioos:station:DISL:PPTA:1,2015-11-03T04:30:00Z,30.2791,-87.5561,97.5,1111122 
DISL,ioos:station:DISL:PPTA:1,2015-11-03T05:00:00Z,30.2791,-87.5561,98.1,1111122 
DISL,ioos:station:DISL:PPTA:1,2015-11-03T05:30:00Z,30.2791,-87.5561,98.4,1111122 
DISL,ioos:station:DISL:PPTA:1,2015-11-03T06:00:00Z,30.2791,-87.5561,98.3,1111122 
DISL,ioos:station:DISL:PPTA:1,2015-11-03T06:30:00Z,30.2791,-87.5561,98.1,1111122 
DISL,ioos:station:DISL:PPTA:1,2015-11-03T07:00:00Z,30.2791,-87.5561,98.2,1111122 
DISL,ioos:station:DISL:PPTA:1,2015-11-03T07:30:00Z,30.2791,-87.5561,97.9,1111122 
DISL,ioos:station:DISL:PPTA:1,2015-11-03T08:00:00Z,30.2791,-87.5561,97.8,1111122 
DISL,ioos:station:DISL:PPTA:1,2015-11-03T08:30:00Z,30.2791,-87.5561,97.8,1111122 
DISL,ioos:station:DISL:PPTA:1,2015-11-03T09:00:00Z,30.2791,-87.5561,97.6,1111122 
DISL,ioos:station:DISL:PPTA:1,2015-11-03T09:30:00Z,30.2791,-87.5561,97.7,1111122 
DISL,ioos:station:DISL:PPTA:1,2015-11-03T10:00:00Z,30.2791,-87.5561,97.3,1111122 
DISL,ioos:station:DISL:PPTA:1,2015-11-03T10:30:00Z,30.2791,-87.5561,96.8,1111122 
DISL,ioos:station:DISL:PPTA:1,2015-11-03T11:00:00Z,30.2791,-87.5561,96.6,1111122 
DISL,ioos:station:DISL:PPTA:1,2015-11-03T11:30:00Z,30.2791,-87.5561,96.8,1111122 
DISL,ioos:station:DISL:PPTA:1,2015-11-03T12:00:00Z,30.2791,-87.5561,96.8,1111122 
DISL,ioos:station:DISL:PPTA:1,2015-11-03T12:30:00Z,30.2791,-87.5561,96.4,1111122 
DISL,ioos:station:DISL:PPTA:1,2015-11-03T13:00:00Z,30.2791,-87.5561,96.5,1111122 
DISL,ioos:station:DISL:PPTA:1,2015-11-03T13:30:00Z,30.2791,-87.5561,95.6,1111122 
DISL,ioos:station:DISL:PPTA:1,2015-11-03T14:00:00Z,30.2791,-87.5561,93.0,1111122 
DISL,ioos:station:DISL:PPTA:1,2015-11-03T14:30:00Z,30.2791,-87.5561,88.3,1111122 
DISL,ioos:station:DISL:PPTA:1,2015-11-03T15:00:00Z,30.2791,-87.5561,84.7,1111122 
DISL,ioos:station:DISL:PPTA:1,2015-11-03T15:30:00Z,30.2791,-87.5561,78.0,1111122 
DISL,ioos:station:DISL:PPTA:1,2015-11-03T16:00:00Z,30.2791,-87.5561,71.6,1111122 
DISL,ioos:station:DISL:PPTA:1,2015-11-03T16:30:00Z,30.2791,-87.5561,70.6,1111122 
DISL,ioos:station:DISL:PPTA:1,2015-11-03T17:00:00Z,30.2791,-87.5561,75.43,1111122 
DISL,ioos:station:DISL:PPTA:1,2015-11-03T17:30:00Z,30.2791,-87.5561,74.61,1111122 
DISL,ioos:station:DISL:PPTA:1,2015-11-03T18:00:00Z,30.2791,-87.5561,77.09,1111122 
DISL,ioos:station:DISL:PPTA:1,2015-11-03T18:30:00Z,30.2791,-87.5561,77.16,1111122 
DISL,ioos:station:DISL:PPTA:1,2015-11-03T19:00:00Z,30.2791,-87.5561,77.64,1111122 
DISL,ioos:station:DISL:PPTA:1,2015-11-03T19:30:00Z,30.2791,-87.5561,76.38,1111122 
DISL,ioos:station:DISL:PPTA:1,2015-11-03T20:00:00Z,30.2791,-87.5561,76.23,1111122 
DISL,ioos:station:DISL:PPTA:1,2015-11-03T20:30:00Z,30.2791,-87.5561,74.09,1111122 
DISL,ioos:station:DISL:PPTA:1,2015-11-03T21:00:00Z,30.2791,-87.5561,71.49,1111122 
DISL,ioos:station:DISL:PPTA:1,2015-11-03T21:30:00Z,30.2791,-87.5561,70.26,1111122 
DISL,ioos:station:DISL:PPTA:1,2015-11-03T22:00:00Z,30.2791,-87.5561,68.45,1111122 
DISL,ioos:station:DISL:PPTA:1,2015-11-03T22:30:00Z,30.2791,-87.5561,71.35,1111122 
DISL,ioos:station:DISL:PPTA:1,2015-11-03T23:00:00Z,30.2791,-87.5561,75.45,1111122 
DISL,ioos:station:DISL:PPTA:1,2015-11-03T23:30:00Z,30.2791,-87.5561,77.61,1111122 
DISL,ioos:station:DISL:PPTA:1,2015-11-04T00:00:00Z,30.2791,-87.5561,79.7,1111122 
DISL,ioos:station:DISL:PPTA:1,2015-11-04T00:30:00Z,30.2791,-87.5561,79.29,1111122 
DISL,ioos:station:DISL:PPTA:1,2015-11-04T01:00:00Z,30.2791,-87.5561,78.16,1111122 
DISL,ioos:station:DISL:PPTA:1,2015-11-04T01:30:00Z,30.2791,-87.5561,76.94,1111122 
DISL,ioos:station:DISL:PPTA:1,2015-11-04T02:00:00Z,30.2791,-87.5561,76.9,1111122 
DISL,ioos:station:DISL:PPTA:1,2015-11-04T02:30:00Z,30.2791,-87.5561,77.96,1111122 
DISL,ioos:station:DISL:PPTA:1,2015-11-04T03:00:00Z,30.2791,-87.5561,77.58,1111122 
DISL,ioos:station:DISL:PPTA:1,2015-11-04T03:30:00Z,30.2791,-87.5561,77.48,1111122 
DISL,ioos:station:DISL:PPTA:1,2015-11-04T04:00:00Z,30.2791,-87.5561,79.88,1111122 
DISL,ioos:station:DISL:PPTA:1,2015-11-04T04:30:00Z,30.2791,-87.5561,77.16,1111122 
DISL,ioos:station:DISL:PPTA:1,2015-11-04T05:00:00Z,30.2791,-87.5561,79.42,1111122 
DISL,ioos:station:DISL:PPTA:1,2015-11-04T05:30:00Z,30.2791,-87.5561,76.72,1111122 
DISL,ioos:station:DISL:PPTA:1,2015-11-04T06:00:00Z,30.2791,-87.5561,76.11,1111122 
DISL,ioos:station:DISL:PPTA:1,2015-11-04T06:30:00Z,30.2791,-87.5561,77.3,1111122 
DISL,ioos:station:DISL:PPTA:1,2015-11-04T07:00:00Z,30.2791,-87.5561,87.0,1111122 
DISL,ioos:station:DISL:PPTA:1,2015-11-04T07:30:00Z,30.2791,-87.5561,94.5,1111122 
DISL,ioos:station:DISL:PPTA:1,2015-11-04T08:00:00Z,30.2791,-87.5561,96.6,1111122 
DISL,ioos:station:DISL:PPTA:1,2015-11-04T08:30:00Z,30.2791,-87.5561,96.8,1111122 
DISL,ioos:station:DISL:PPTA:1,2015-11-04T09:00:00Z,30.2791,-87.5561,97.3,1111122 
DISL,ioos:station:DISL:PPTA:1,2015-11-04T09:30:00Z,30.2791,-87.5561,97.3,1111122 
DISL,ioos:station:DISL:PPTA:1,2015-11-04T10:00:00Z,30.2791,-87.5561,97.4,1111122 
DISL,ioos:station:DISL:PPTA:1,2015-11-04T10:30:00Z,30.2791,-87.5561,97.4,1111122 
DISL,ioos:station:DISL:PPTA:1,2015-11-04T11:00:00Z,30.2791,-87.5561,97.3,1111122 
DISL,ioos:station:DISL:PPTA:1,2015-11-04T11:30:00Z,30.2791,-87.5561,97.4,1111122 
DISL,ioos:station:DISL:PPTA:1,2015-11-04T12:00:00Z,30.2791,-87.5561,97.3,1111122 
DISL,ioos:station:DISL:PPTA:1,2015-11-04T12:30:00Z,30.2791,-87.5561,98.0,1111122 
DISL,ioos:station:DISL:PPTA:1,2015-11-04T13:00:00Z,30.2791,-87.5561,95.8,1111122 
DISL,ioos:station:DISL:PPTA:1,2015-11-04T13:30:00Z,30.2791,-87.5561,95.1,1111122 
DISL,ioos:station:DISL:PPTA:1,2015-11-04T14:00:00Z,30.2791,-87.5561,86.0,1111122 
DISL,ioos:station:DISL:PPTA:1,2015-11-04T14:30:00Z,30.2791,-87.5561,82.2,1111122 
DISL,ioos:station:DISL:PPTA:1,2015-11-04T15:00:00Z,30.2791,-87.5561,85.9,1111122 
DISL,ioos:station:DISL:PPTA:1,2015-11-04T15:30:00Z,30.2791,-87.5561,84.5,1111122 
DISL,ioos:station:DISL:PPTA:1,2015-11-04T16:00:00Z,30.2791,-87.5561,81.7,1111122 
DISL,ioos:station:DISL:PPTA:1,2015-11-04T16:30:00Z,30.2791,-87.5561,78.11,1111122 
DISL,ioos:station:DISL:PPTA:1,2015-11-04T17:00:00Z,30.2791,-87.5561,77.33,1111122 
DISL,ioos:station:DISL:PPTA:1,2015-11-04T17:30:00Z,30.2791,-87.5561,77.53,1111122 
DISL,ioos:station:DISL:PPTA:1,2015-11-04T18:00:00Z,30.2791,-87.5561,73.46,1111122 
DISL,ioos:station:DISL:PPTA:1,2015-11-04T18:30:00Z,30.2791,-87.5561,72.6,1111122 
DISL,ioos:station:DISL:PPTA:1,2015-11-04T19:00:00Z,30.2791,-87.5561,74.85,1111122 
DISL,ioos:station:DISL:PPTA:1,2015-11-04T19:30:00Z,30.2791,-87.5561,76.37,1111122 
DISL,ioos:station:DISL:PPTA:1,2015-11-04T20:00:00Z,30.2791,-87.5561,77.97,1111122 
DISL,ioos:station:DISL:PPTA:1,2015-11-04T20:30:00Z,30.2791,-87.5561,78.11,1111122 
DISL,ioos:station:DISL:PPTA:1,2015-11-04T21:00:00Z,30.2791,-87.5561,78.96,1111122 
DISL,ioos:station:DISL:PPTA:1,2015-11-04T21:30:00Z,30.2791,-87.5561,78.32,1111122 
DISL,ioos:station:DISL:PPTA:1,2015-11-04T22:00:00Z,30.2791,-87.5561,79.24,1111122 
DISL,ioos:station:DISL:PPTA:1,2015-11-04T22:30:00Z,30.2791,-87.5561,82.9,1111122 
DISL,ioos:station:DISL:PPTA:1,2015-11-04T23:00:00Z,30.2791,-87.5561,91.4,1111122 
DISL,ioos:station:DISL:PPTA:1,2015-11-04T23:30:00Z,30.2791,-87.5561,94.9,1111122 
DISL,ioos:station:DISL:PPTA:1,2015-11-05T00:00:00Z,30.2791,-87.5561,96.7,1111122 
DISL,ioos:station:DISL:PPTA:1,2015-11-05T00:30:00Z,30.2791,-87.5561,97.5,1111122 
DISL,ioos:station:DISL:PPTA:1,2015-11-05T01:00:00Z,30.2791,-87.5561,97.6,1111122 
DISL,ioos:station:DISL:PPTA:1,2015-11-05T01:30:00Z,30.2791,-87.5561,96.5,1111122 
DISL,ioos:station:DISL:PPTA:1,2015-11-05T02:00:00Z,30.2791,-87.5561,97.6,1111122 
DISL,ioos:station:DISL:PPTA:1,2015-11-05T02:30:00Z,30.2791,-87.5561,97.0,1111122 
DISL,ioos:station:DISL:PPTA:1,2015-11-05T03:00:00Z,30.2791,-87.5561,95.9,1111122 
DISL,ioos:station:DISL:PPTA:1,2015-11-05T03:30:00Z,30.2791,-87.5561,96.4,1111122 
DISL,ioos:station:DISL:PPTA:1,2015-11-05T04:00:00Z,30.2791,-87.5561,94.4,1111122 
DISL,ioos:station:DISL:PPTA:1,2015-11-05T04:30:00Z,30.2791,-87.5561,95.5,1111122 
DISL,ioos:station:DISL:PPTA:1,2015-11-05T05:00:00Z,30.2791,-87.5561,96.8,1111122 
DISL,ioos:station:DISL:PPTA:1,2015-11-05T05:30:00Z,30.2791,-87.5561,98.3,1111122 
DISL,ioos:station:DISL:PPTA:1,2015-11-05T06:00:00Z,30.2791,-87.5561,98.8,1111122 
DISL,ioos:station:DISL:PPTA:1,2015-11-05T06:30:00Z,30.2791,-87.5561,99.1,1111122 
DISL,ioos:station:DISL:PPTA:1,2015-11-05T07:00:00Z,30.2791,-87.5561,99.7,1111122 
DISL,ioos:station:DISL:PPTA:1,2015-11-05T07:30:00Z,30.2791,-87.5561,99.6,1111122 
DISL,ioos:station:DISL:PPTA:1,2015-11-05T08:00:00Z,30.2791,-87.5561,99.0,1111122 
DISL,ioos:station:DISL:PPTA:1,2015-11-05T08:30:00Z,30.2791,-87.5561,99.0,1111122 
DISL,ioos:station:DISL:PPTA:1,2015-11-05T09:00:00Z,30.2791,-87.5561,98.4,1111122 
DISL,ioos:station:DISL:PPTA:1,2015-11-05T09:30:00Z,30.2791,-87.5561,98.2,1111122 
DISL,ioos:station:DISL:PPTA:1,2015-11-05T10:00:00Z,30.2791,-87.5561,95.9,1111122 
DISL,ioos:station:DISL:PPTA:1,2015-11-05T10:30:00Z,30.2791,-87.5561,96.7,1111122 
DISL,ioos:station:DISL:PPTA:1,2015-11-05T11:00:00Z,30.2791,-87.5561,98.1,1111122 
DISL,ioos:station:DISL:PPTA:1,2015-11-05T11:30:00Z,30.2791,-87.5561,99.1,1111122 
DISL,ioos:station:DISL:PPTA:1,2015-11-05T12:00:00Z,30.2791,-87.5561,99.7,1111122 
DISL,ioos:station:DISL:PPTA:1,2015-11-05T12:30:00Z,30.2791,-87.5561,100.0,1111122 
DISL,ioos:station:DISL:PPTA:1,2015-11-05T13:00:00Z,30.2791,-87.5561,99.4,1111122 
DISL,ioos:station:DISL:PPTA:1,2015-11-05T13:30:00Z,30.2791,-87.5561,99.5,1111122 
DISL,ioos:station:DISL:PPTA:1,2015-11-05T14:00:00Z,30.2791,-87.5561,99.8,1111122 
DISL,ioos:station:DISL:PPTA:1,2015-11-05T14:30:00Z,30.2791,-87.5561,98.9,1111122 
DISL,ioos:station:DISL:PPTA:1,2015-11-05T15:00:00Z,30.2791,-87.5561,97.3,1111122 
DISL,ioos:station:DISL:PPTA:1,2015-11-05T15:30:00Z,30.2791,-87.5561,96.1,1111122 
DISL,ioos:station:DISL:PPTA:1,2015-11-05T16:00:00Z,30.2791,-87.5561,97.0,1111122 
DISL,ioos:station:DISL:PPTA:1,2015-11-05T16:30:00Z,30.2791,-87.5561,95.8,1111122 
DISL,ioos:station:DISL:PPTA:1,2015-11-05T17:00:00Z,30.2791,-87.5561,93.2,1111122 
DISL,ioos:station:DISL:PPTA:1,2015-11-05T17:30:00Z,30.2791,-87.5561,94.2,1111122 
DISL,ioos:station:DISL:PPTA:1,2015-11-05T18:00:00Z,30.2791,-87.5561,96.0,1111122 
DISL,ioos:station:DISL:PPTA:1,2015-11-05T18:30:00Z,30.2791,-87.5561,96.0,1111122 
DISL,ioos:station:DISL:PPTA:1,2015-11-05T19:00:00Z,30.2791,-87.5561,96.2,1111122 
DISL,ioos:station:DISL:PPTA:1,2015-11-05T19:30:00Z,30.2791,-87.5561,96.7,1111122 
DISL,ioos:station:DISL:PPTA:1,2015-11-05T20:00:00Z,30.2791,-87.5561,96.5,1111122 
DISL,ioos:station:DISL:PPTA:1,2015-11-05T20:30:00Z,30.2791,-87.5561,94.7,1111122 
DISL,ioos:station:DISL:PPTA:1,2015-11-05T21:00:00Z,30.2791,-87.5561,93.1,1111122 
DISL,ioos:station:DISL:PPTA:1,2015-11-05T21:30:00Z,30.2791,-87.5561,93.1,1111122 
DISL,ioos:station:DISL:PPTA:1,2015-11-05T22:00:00Z,30.2791,-87.5561,93.4,1111122 
DISL,ioos:station:DISL:PPTA:1,2015-11-05T22:30:00Z,30.2791,-87.5561,93.9,1111122 
DISL,ioos:station:DISL:PPTA:1,2015-11-05T23:00:00Z,30.2791,-87.5561,96.4,1111122 
DISL,ioos:station:DISL:PPTA:1,2015-11-05T23:30:00Z,30.2791,-87.5561,97.0,1111122 
DISL,ioos:station:DISL:PPTA:1,2015-11-06T00:00:00Z,30.2791,-87.5561,97.2,1111122 
DISL,ioos:station:DISL:PPTA:1,2015-11-06T00:30:00Z,30.2791,-87.5561,97.7,1111122 
DISL,ioos:station:DISL:PPTA:1,2015-11-06T01:00:00Z,30.2791,-87.5561,98.6,1111122 
DISL,ioos:station:DISL:PPTA:1,2015-11-06T01:30:00Z,30.2791,-87.5561,99.6,1111122 
DISL,ioos:station:DISL:PPTA:1,2015-11-06T02:00:00Z,30.2791,-87.5561,100.0,1111122 
DISL,ioos:station:DISL:PPTA:1,2015-11-06T02:30:00Z,30.2791,-87.5561,100.0,1111122 
DISL,ioos:station:DISL:PPTA:1,2015-11-06T03:00:00Z,30.2791,-87.5561,100.0,1111122 
DISL,ioos:station:DISL:PPTA:1,2015-11-06T03:30:00Z,30.2791,-87.5561,100.0,1111122 
DISL,ioos:station:DISL:PPTA:1,2015-11-06T04:00:00Z,30.2791,-87.5561,100.0,1111122 
DISL,ioos:station:DISL:PPTA:1,2015-11-06T04:30:00Z,30.2791,-87.5561,100.0,1111122 
DISL,ioos:station:DISL:PPTA:1,2015-11-06T05:00:00Z,30.2791,-87.5561,100.0,1111122 
DISL,ioos:station:DISL:PPTA:1,2015-11-06T05:30:00Z,30.2791,-87.5561,100.0,1111122 
DISL,ioos:station:DISL:PPTA:1,2015-11-06T06:00:00Z,30.2791,-87.5561,100.0,1111122 
DISL,ioos:station:DISL:PPTA:1,2015-11-06T06:30:00Z,30.2791,-87.5561,100.0,1111122 
DISL,ioos:station:DISL:PPTA:1,2015-11-06T07:00:00Z,30.2791,-87.5561,100.0,1111122 
DISL,ioos:station:DISL:PPTA:1,2015-11-06T07:30:00Z,30.2791,-87.5561,100.0,1111122 
DISL,ioos:station:DISL:PPTA:1,2015-11-06T08:00:00Z,30.2791,-87.5561,100.0,1111122 
DISL,ioos:station:DISL:PPTA:1,2015-11-06T08:30:00Z,30.2791,-87.5561,100.0,1111122 
DISL,ioos:station:DISL:PPTA:1,2015-11-06T09:00:00Z,30.2791,-87.5561,100.0,1111122 
DISL,ioos:station:DISL:PPTA:1,2015-11-06T09:30:00Z,30.2791,-87.5561,100.0,1111122 
DISL,ioos:station:DISL:PPTA:1,2015-11-06T10:00:00Z,30.2791,-87.5561,100.0,1111122 
DISL,ioos:station:DISL:PPTA:1,2015-11-06T10:30:00Z,30.2791,-87.5561,100.0,1111122 
DISL,ioos:station:DISL:PPTA:1,2015-11-06T11:00:00Z,30.2791,-87.5561,100.0,1111122 
DISL,ioos:station:DISL:PPTA:1,2015-11-06T11:30:00Z,30.2791,-87.5561,100.0,1111122 
DISL,ioos:station:DISL:PPTA:1,2015-11-06T12:00:00Z,30.2791,-87.5561,100.0,1111122 
DISL,ioos:station:DISL:PPTA:1,2015-11-06T12:30:00Z,30.2791,-87.5561,100.0,1111122 
DISL,ioos:station:DISL:PPTA:1,2015-11-06T13:00:00Z,30.2791,-87.5561,100.0,1111122 
DISL,ioos:station:DISL:PPTA:1,2015-11-06T13:30:00Z,30.2791,-87.5561,100.0,1111122 
DISL,ioos:station:DISL:PPTA:1,2015-11-06T14:00:00Z,30.2791,-87.5561,97.4,1111122 
DISL,ioos:station:DISL:PPTA:1,2015-11-06T14:30:00Z,30.2791,-87.5561,94.2,1111122 
DISL,ioos:station:DISL:PPTA:1,2015-11-06T15:00:00Z,30.2791,-87.5561,93.3,1111122 
DISL,ioos:station:DISL:PPTA:1,2015-11-06T15:30:00Z,30.2791,-87.5561,91.2,1111122 
DISL,ioos:station:DISL:PPTA:1,2015-11-06T16:00:00Z,30.2791,-87.5561,93.0,1111122 
DISL,ioos:station:DISL:PPTA:1,2015-11-06T16:30:00Z,30.2791,-87.5561,93.6,1111122 
DISL,ioos:station:DISL:PPTA:1,2015-11-06T17:00:00Z,30.2791,-87.5561,90.8,1111122 
DISL,ioos:station:DISL:PPTA:1,2015-11-06T17:30:00Z,30.2791,-87.5561,91.8,1111122 
DISL,ioos:station:DISL:PPTA:1,2015-11-06T18:00:00Z,30.2791,-87.5561,95.0,1111122 
DISL,ioos:station:DISL:PPTA:1,2015-11-06T18:30:00Z,30.2791,-87.5561,94.2,1111122 
DISL,ioos:station:DISL:PPTA:1,2015-11-06T19:00:00Z,30.2791,-87.5561,95.2,1111122 
DISL,ioos:station:DISL:PPTA:1,2015-11-06T19:30:00Z,30.2791,-87.5561,96.9,1111122 
DISL,ioos:station:DISL:PPTA:1,2015-11-06T20:00:00Z,30.2791,-87.5561,94.0,1111122 
DISL,ioos:station:DISL:PPTA:1,2015-11-06T20:30:00Z,30.2791,-87.5561,93.4,1111122 
DISL,ioos:station:DISL:PPTA:1,2015-11-06T21:00:00Z,30.2791,-87.5561,94.7,1111122 
DISL,ioos:station:DISL:PPTA:1,2015-11-06T21:30:00Z,30.2791,-87.5561,95.8,1111122 
DISL,ioos:station:DISL:PPTA:1,2015-11-06T22:00:00Z,30.2791,-87.5561,95.0,1111122 
DISL,ioos:station:DISL:PPTA:1,2015-11-06T22:30:00Z,30.2791,-87.5561,96.6,1111122 
DISL,ioos:station:DISL:PPTA:1,2015-11-06T23:00:00Z,30.2791,-87.5561,97.5,1111122 
DISL,ioos:station:DISL:PPTA:1,2015-11-06T23:30:00Z,30.2791,-87.5561,98.3,1111122 
DISL,ioos:station:DISL:PPTA:1,2015-11-07T00:00:00Z,30.2791,-87.5561,97.4,1111122 
DISL,ioos:station:DISL:PPTA:1,2015-11-07T00:30:00Z,30.2791,-87.5561,95.6,1111122 
DISL,ioos:station:DISL:PPTA:1,2015-11-07T01:00:00Z,30.2791,-87.5561,96.7,1111122 